Tracking 30313 objects as of 21-Apr-2025
HD Live streaming from Space Station
objects crossing your sky now

STARLINK-32160

Track STARLINK-32160 now!
10-day predictions
STARLINK-32160 is classified as:


NORAD ID: 60261
Int'l Code: 2024-131G
Perigee: 481.4 km
Apogee: 483.4 km
Inclination: 53.2 °
Period: 94.1 minutes
Semi major axis: 6853 km
RCS: Unknown
Launch date: July 27, 2024
Source: United States (US)
Launch site: AIR FORCE EASTERN TEST RANGE (AFETR)
Your satellite tracking list
Your tracking list is empty




NASA's NSSDC Master Catalog

Two Line Element Set (TLE):
1 60261U 24131G   25111.28911357 -.00001546  00000-0 -40067-4 0  9991
2 60261  53.1595 110.2297 0001455 101.5132 258.6032 15.30199372 42401
Source of the keplerian elements: AFSPC